Location: Lake Crest
(37.6062°N, 88.9176°W)
Time: 12:52:12
(UTC+00:00)

SKYMED 2 - Pass Details

Date: 15 December 2019
Orbit: 621 x 623 km, 97.9° (Epoch: 17 January)

Event Time Altitude Azimuth Distance (km) Brightness Sun altitude
Rises 11:13:24 0° 168° (SSE) 2,889 7.3 -21.0°
Reaches altitude 10° 11:15:34 10° 169° (SSE) 1,987 6.5 -20.6°
Maximum altitude 11:19:54 84° 258° (WSW) 632 3.4 -19.8°
Enters shadow 11:22:48 21° 345° (NNW) 1,414 5.1 -19.2°
